Year,Month,Day,Hour,Minute,Value (Times are PST for temperature in C)
2007,10,12,00,00,8.10
2007,10,12,00,01,8.10
2007,10,12,00,02,8.10
2007,10,12,00,03,8.10
2007,10,12,00,04,8.10
2007,10,12,00,05,8.10
2007,10,12,00,06,8.10
2007,10,12,00,07,8.10
2007,10,12,00,08,8.10
2007,10,12,00,09,8.10
2007,10,12,00,10,8.10
2007,10,12,00,11,8.10
2007,10,12,00,12,8.10
2007,10,12,00,13,8.00
2007,10,12,00,14,8.10
2007,10,12,00,15,8.00
2007,10,12,00,16,8.00
2007,10,12,00,17,8.00
2007,10,12,00,18,8.00
2007,10,12,00,19,8.00
2007,10,12,00,20,8.00
2007,10,12,00,21,8.00
2007,10,12,00,22,8.00
2007,10,12,00,23,8.00
2007,10,12,00,24,8.00
2007,10,12,00,25,8.00
2007,10,12,00,26,8.00
2007,10,12,00,27,8.00
2007,10,12,00,28,8.00
2007,10,12,00,29,8.00
2007,10,12,00,30,8.00
2007,10,12,00,31,8.00
2007,10,12,00,32,8.00
2007,10,12,00,33,8.00
2007,10,12,00,34,8.00
2007,10,12,00,36,8.00
2007,10,12,00,37,7.90
2007,10,12,00,38,7.90
2007,10,12,00,39,7.90
2007,10,12,00,40,7.90
2007,10,12,00,41,7.90
2007,10,12,00,42,7.90
2007,10,12,00,43,7.90
2007,10,12,00,44,7.90
2007,10,12,00,45,7.90
2007,10,12,00,46,7.90
2007,10,12,00,47,7.90
2007,10,12,00,48,7.90
2007,10,12,00,49,7.80
2007,10,12,00,50,7.80
2007,10,12,00,51,7.80
2007,10,12,00,52,7.80
2007,10,12,00,53,7.80
2007,10,12,00,54,7.80
2007,10,12,00,55,7.80
2007,10,12,00,56,7.80
2007,10,12,00,57,7.80
2007,10,12,00,58,7.80
2007,10,12,00,59,7.80
2007,10,12,01,00,7.80
2007,10,12,01,01,7.80
2007,10,12,01,02,7.80
2007,10,12,01,03,7.80
2007,10,12,01,04,7.80
2007,10,12,01,05,7.80
2007,10,12,01,06,7.80
2007,10,12,01,07,7.70
2007,10,12,01,08,7.70
2007,10,12,01,09,7.70
2007,10,12,01,10,7.70
2007,10,12,01,11,7.70
2007,10,12,01,12,7.70
2007,10,12,01,13,7.70
2007,10,12,01,14,7.70
2007,10,12,01,15,7.60
2007,10,12,01,16,7.60
2007,10,12,01,17,7.60
2007,10,12,01,18,7.60
2007,10,12,01,19,7.60
2007,10,12,01,20,7.60
2007,10,12,01,21,7.60
2007,10,12,01,23,7.50
2007,10,12,01,24,7.50
2007,10,12,01,25,7.50
2007,10,12,01,26,7.50
2007,10,12,01,27,7.50
2007,10,12,01,28,7.50
2007,10,12,01,29,7.50
2007,10,12,01,30,7.50
2007,10,12,01,31,7.50
2007,10,12,01,32,7.40
2007,10,12,01,33,7.50
2007,10,12,01,34,7.40
2007,10,12,01,35,7.40
2007,10,12,01,36,7.40
2007,10,12,01,37,7.40
2007,10,12,01,38,7.40
2007,10,12,01,39,7.40
2007,10,12,01,40,7.40
2007,10,12,01,41,7.40
2007,10,12,01,42,7.40
2007,10,12,01,43,7.40
2007,10,12,01,44,7.30
2007,10,12,01,45,7.30
2007,10,12,01,46,7.30
2007,10,12,01,47,7.30
2007,10,12,01,48,7.30
2007,10,12,01,49,7.30
2007,10,12,01,50,7.30
2007,10,12,01,51,7.30
2007,10,12,01,52,7.30
2007,10,12,01,53,7.30
2007,10,12,01,54,7.30
2007,10,12,01,55,7.30
2007,10,12,01,56,7.30
2007,10,12,01,57,7.30
2007,10,12,01,59,7.30
2007,10,12,02,00,7.30
2007,10,12,02,01,7.30
2007,10,12,02,02,7.30
2007,10,12,02,03,7.30
2007,10,12,02,04,7.30
2007,10,12,02,05,7.30
2007,10,12,02,06,7.30
2007,10,12,02,07,7.30
2007,10,12,02,08,7.30
2007,10,12,02,09,7.30
2007,10,12,02,10,7.30
2007,10,12,02,11,7.30
2007,10,12,02,12,7.30
2007,10,12,02,13,7.30
2007,10,12,02,14,7.30
2007,10,12,02,15,7.30
2007,10,12,02,16,7.30
2007,10,12,02,17,7.30
2007,10,12,02,18,7.30
2007,10,12,02,19,7.30
2007,10,12,02,20,7.30
2007,10,12,02,21,7.30
2007,10,12,02,22,7.30
2007,10,12,02,23,7.30
2007,10,12,02,24,7.30
2007,10,12,02,25,7.30
2007,10,12,02,26,7.30
2007,10,12,02,27,7.30
2007,10,12,02,28,7.30
2007,10,12,02,29,7.30
2007,10,12,02,30,7.30
2007,10,12,02,31,7.30
2007,10,12,02,32,7.30
2007,10,12,02,33,7.30
2007,10,12,02,34,7.30
2007,10,12,02,35,7.30
2007,10,12,02,37,7.30
2007,10,12,02,38,7.30
2007,10,12,02,39,7.30
2007,10,12,02,40,7.30
2007,10,12,02,41,7.30
2007,10,12,02,42,7.30
2007,10,12,02,43,7.20
2007,10,12,02,44,7.30
2007,10,12,02,45,7.20
2007,10,12,02,46,7.20
2007,10,12,02,47,7.20
2007,10,12,02,48,7.20
2007,10,12,02,49,7.20
2007,10,12,02,50,7.20
2007,10,12,02,51,7.20
2007,10,12,02,52,7.20
2007,10,12,02,53,7.20
2007,10,12,02,54,7.20
2007,10,12,02,55,7.20
2007,10,12,02,56,7.20
2007,10,12,02,57,7.20
2007,10,12,02,58,7.20
2007,10,12,02,59,7.20
2007,10,12,03,00,7.20
2007,10,12,03,02,7.20
2007,10,12,03,03,7.20
2007,10,12,03,04,7.20
2007,10,12,03,05,7.20
2007,10,12,03,06,7.20
2007,10,12,03,10,7.10
2007,10,12,03,11,7.10
2007,10,12,03,12,7.10
2007,10,12,03,13,7.10
2007,10,12,03,14,7.10
2007,10,12,03,15,7.10
2007,10,12,03,16,7.10
2007,10,12,03,17,7.10
2007,10,12,03,18,7.10
2007,10,12,03,19,7.10
2007,10,12,03,20,7.10
2007,10,12,03,21,7.10
2007,10,12,03,22,7.10
2007,10,12,03,23,7.10
2007,10,12,03,24,7.10
2007,10,12,03,25,7.10
2007,10,12,03,26,7.10
2007,10,12,03,27,7.10
2007,10,12,03,28,7.10
2007,10,12,03,29,7.10
2007,10,12,03,30,7.10
2007,10,12,03,31,7.10
2007,10,12,03,32,7.10
2007,10,12,03,33,7.10
2007,10,12,03,34,7.10
2007,10,12,03,35,7.10
2007,10,12,03,36,7.10
2007,10,12,03,37,7.10
2007,10,12,03,38,7.10
2007,10,12,03,39,7.00
2007,10,12,03,40,7.00
2007,10,12,03,41,7.00
2007,10,12,03,42,7.00
2007,10,12,03,43,7.00
2007,10,12,03,44,7.00
2007,10,12,03,45,7.00
2007,10,12,03,46,7.00
2007,10,12,03,47,7.00
2007,10,12,03,48,7.00
2007,10,12,03,49,7.00
2007,10,12,03,50,7.00
2007,10,12,03,51,7.00
2007,10,12,03,52,7.00
2007,10,12,03,53,7.00
2007,10,12,03,54,7.00
2007,10,12,03,55,7.00
2007,10,12,03,56,7.00
2007,10,12,03,57,7.00
2007,10,12,03,58,7.00
2007,10,12,03,59,6.90
2007,10,12,04,00,6.90
2007,10,12,04,01,6.90
2007,10,12,04,02,6.90
2007,10,12,04,03,6.90
2007,10,12,04,04,6.90
2007,10,12,04,05,6.90
2007,10,12,04,06,6.80
2007,10,12,04,07,6.80
2007,10,12,04,08,6.80
2007,10,12,04,09,6.80
2007,10,12,04,10,6.80
2007,10,12,04,11,6.80
2007,10,12,04,12,6.80
2007,10,12,04,13,6.80
2007,10,12,04,14,6.80
2007,10,12,04,15,6.80
2007,10,12,04,16,6.80
2007,10,12,04,17,6.80
2007,10,12,04,18,6.80
2007,10,12,04,19,6.80
2007,10,12,04,20,6.80
2007,10,12,04,21,6.80
2007,10,12,04,22,6.80
2007,10,12,04,23,6.80
2007,10,12,04,24,6.80
2007,10,12,04,25,6.80
2007,10,12,04,26,6.80
2007,10,12,04,27,6.80
2007,10,12,04,28,6.80
2007,10,12,04,29,6.80
2007,10,12,04,30,6.80
2007,10,12,04,31,6.80
2007,10,12,04,32,6.90
2007,10,12,04,33,6.90
2007,10,12,04,34,6.80
2007,10,12,04,35,6.80
2007,10,12,04,36,6.80
2007,10,12,04,37,6.90
2007,10,12,04,38,6.90
2007,10,12,04,39,6.90
2007,10,12,04,40,6.90
2007,10,12,04,41,6.90
2007,10,12,04,42,6.90
2007,10,12,04,44,6.90
2007,10,12,04,45,6.90
2007,10,12,04,46,7.00
2007,10,12,04,47,6.90
2007,10,12,04,48,6.90
2007,10,12,04,49,6.90
2007,10,12,04,50,6.90
2007,10,12,04,51,7.00
2007,10,12,04,52,7.00
2007,10,12,04,53,7.00
2007,10,12,04,54,7.00
2007,10,12,04,55,7.00
2007,10,12,04,56,7.00
2007,10,12,04,57,7.00
2007,10,12,04,58,7.00
2007,10,12,04,59,7.00
2007,10,12,05,00,7.00
2007,10,12,05,01,7.00
2007,10,12,05,02,7.00
2007,10,12,05,03,7.00
2007,10,12,05,04,7.00
2007,10,12,05,05,7.00
2007,10,12,05,06,7.00
2007,10,12,05,07,7.00
2007,10,12,05,08,7.00
2007,10,12,05,09,7.00
2007,10,12,05,10,7.00
2007,10,12,05,11,7.00
2007,10,12,05,12,7.00
2007,10,12,05,13,7.00
2007,10,12,05,14,7.00
2007,10,12,05,15,7.00
2007,10,12,05,16,7.00
2007,10,12,05,17,7.00
2007,10,12,05,18,6.90
2007,10,12,05,19,7.00
2007,10,12,05,20,6.90
2007,10,12,05,21,6.90
2007,10,12,05,22,7.00
2007,10,12,05,23,6.90
2007,10,12,05,24,6.90
2007,10,12,05,25,6.90
2007,10,12,05,26,6.90
2007,10,12,05,27,6.90
2007,10,12,05,28,6.90
2007,10,12,05,29,6.90
2007,10,12,05,30,6.90
2007,10,12,05,31,6.90
2007,10,12,05,32,6.90
2007,10,12,05,33,6.90
2007,10,12,05,34,6.90
2007,10,12,05,35,6.90
2007,10,12,05,36,6.90
2007,10,12,05,37,6.90
2007,10,12,05,38,6.90
2007,10,12,05,39,6.90
2007,10,12,05,40,6.90
2007,10,12,05,41,7.00
2007,10,12,05,42,6.90
2007,10,12,05,43,7.00
2007,10,12,05,44,7.00
2007,10,12,05,45,6.90
2007,10,12,05,46,6.90
2007,10,12,05,47,6.90
2007,10,12,05,48,7.00
2007,10,12,05,49,7.00
2007,10,12,05,50,7.00
2007,10,12,05,51,7.00
2007,10,12,05,52,7.00
2007,10,12,05,53,7.00
2007,10,12,05,54,7.00
2007,10,12,05,55,6.90
2007,10,12,05,56,7.00
2007,10,12,05,58,7.00
2007,10,12,05,59,7.00
2007,10,12,06,00,7.00
2007,10,12,06,01,7.00
2007,10,12,06,02,7.00
2007,10,12,06,03,7.00
2007,10,12,06,05,7.00
2007,10,12,06,06,7.00
2007,10,12,06,07,7.00
2007,10,12,06,08,7.00
2007,10,12,06,09,7.00
2007,10,12,06,10,7.00
2007,10,12,06,11,7.00
2007,10,12,06,12,7.00
2007,10,12,06,13,7.00
2007,10,12,06,14,7.00
2007,10,12,06,15,7.00
2007,10,12,06,16,7.00
2007,10,12,06,17,7.00
2007,10,12,06,18,7.10
2007,10,12,06,19,7.10
2007,10,12,06,20,7.00
2007,10,12,06,21,7.00
2007,10,12,06,22,7.00
2007,10,12,06,23,7.10
2007,10,12,06,24,7.10
2007,10,12,06,25,7.10
2007,10,12,06,26,7.10
2007,10,12,06,27,7.10
2007,10,12,06,28,7.10
2007,10,12,06,29,7.10
2007,10,12,06,30,7.10
2007,10,12,06,31,7.10
2007,10,12,06,32,7.20
2007,10,12,06,33,7.20
2007,10,12,06,34,7.20
2007,10,12,06,35,7.20
2007,10,12,06,36,7.20
2007,10,12,06,37,7.20
2007,10,12,06,38,7.20
2007,10,12,06,39,7.30
2007,10,12,06,40,7.20
2007,10,12,06,41,7.30
2007,10,12,06,42,7.30
2007,10,12,06,43,7.30
2007,10,12,06,44,7.30
2007,10,12,06,45,7.30
2007,10,12,06,46,7.30
2007,10,12,06,47,7.30
2007,10,12,06,48,7.30
2007,10,12,06,49,7.30
2007,10,12,06,50,7.30
2007,10,12,06,51,7.30
2007,10,12,06,52,7.30
2007,10,12,06,53,7.30
2007,10,12,06,54,7.30
2007,10,12,06,55,7.30
2007,10,12,06,56,7.30
2007,10,12,06,57,7.30
2007,10,12,06,58,7.30
2007,10,12,06,59,7.30
2007,10,12,07,00,7.30
2007,10,12,07,01,7.30
2007,10,12,07,02,7.30
2007,10,12,07,03,7.40
2007,10,12,07,04,7.40
2007,10,12,07,05,7.40
2007,10,12,07,06,7.40
2007,10,12,07,07,7.40
2007,10,12,07,08,7.40
2007,10,12,07,09,7.40
2007,10,12,07,10,7.40
2007,10,12,07,11,7.40
2007,10,12,07,12,7.40
2007,10,12,07,13,7.40
2007,10,12,07,14,7.40
2007,10,12,07,15,7.40
2007,10,12,07,16,7.40
2007,10,12,07,17,7.40
2007,10,12,07,18,7.40
2007,10,12,07,19,7.40
2007,10,12,07,20,7.40
2007,10,12,07,22,7.40
2007,10,12,07,23,7.40
2007,10,12,07,25,7.40
2007,10,12,07,26,7.50
2007,10,12,07,27,7.50
2007,10,12,07,28,7.50
2007,10,12,07,29,7.50
2007,10,12,07,30,7.50
2007,10,12,07,31,7.50
2007,10,12,07,32,7.50
2007,10,12,07,33,7.50
2007,10,12,07,34,7.50
2007,10,12,07,35,7.60
2007,10,12,07,36,7.60
2007,10,12,07,37,7.60
2007,10,12,07,38,7.60
2007,10,12,07,39,7.60
2007,10,12,07,40,7.60
2007,10,12,07,41,7.60
2007,10,12,07,42,7.60
2007,10,12,07,43,7.60
2007,10,12,07,44,7.60
2007,10,12,07,45,7.60
2007,10,12,07,46,7.60
2007,10,12,07,47,7.70
2007,10,12,07,48,7.70
2007,10,12,07,49,7.70
2007,10,12,07,51,7.70
2007,10,12,07,52,7.70
2007,10,12,07,53,7.60
2007,10,12,07,54,7.60
2007,10,12,07,55,7.60
2007,10,12,07,56,7.60
2007,10,12,07,57,7.60
2007,10,12,07,58,7.60
2007,10,12,07,59,7.60
2007,10,12,08,00,7.60
2007,10,12,08,01,7.60
2007,10,12,08,03,7.60
2007,10,12,08,05,7.60
2007,10,12,08,06,7.60
2007,10,12,08,08,7.60
2007,10,12,08,09,7.60
2007,10,12,08,10,7.60
2007,10,12,08,11,7.60
2007,10,12,08,12,7.60
2007,10,12,08,13,7.60
2007,10,12,08,14,7.60
2007,10,12,08,15,7.60
2007,10,12,08,16,7.60
2007,10,12,08,17,7.60
2007,10,12,08,18,7.60
2007,10,12,08,19,7.60
2007,10,12,08,20,7.60
2007,10,12,08,21,7.60
2007,10,12,08,22,7.60
2007,10,12,08,24,7.60
2007,10,12,08,25,7.60
2007,10,12,08,26,7.60
2007,10,12,08,27,7.60
2007,10,12,08,28,7.60
2007,10,12,08,29,7.60
2007,10,12,08,30,7.60
2007,10,12,08,31,7.60
2007,10,12,08,32,7.60
2007,10,12,08,33,7.60
2007,10,12,08,34,7.60
2007,10,12,08,35,7.60
2007,10,12,08,36,7.60
2007,10,12,08,37,7.60
2007,10,12,08,38,7.60
2007,10,12,08,39,7.60
2007,10,12,08,40,7.50
2007,10,12,08,41,7.60
2007,10,12,08,42,7.50
2007,10,12,08,43,7.50
2007,10,12,08,44,7.50
2007,10,12,08,45,7.50
2007,10,12,08,46,7.50
2007,10,12,08,47,7.50
2007,10,12,08,48,7.50
2007,10,12,08,49,7.50
2007,10,12,08,50,7.50
2007,10,12,08,51,7.60
2007,10,12,08,53,7.60
2007,10,12,08,54,7.60
2007,10,12,08,55,7.60
2007,10,12,08,56,7.70
2007,10,12,08,57,7.70
2007,10,12,08,58,7.70
2007,10,12,09,00,7.70
2007,10,12,09,01,7.70
2007,10,12,09,02,7.80
2007,10,12,09,03,7.80
2007,10,12,09,05,7.80
2007,10,12,09,06,7.80
2007,10,12,09,07,7.80
2007,10,12,09,08,7.80
2007,10,12,09,09,7.80
2007,10,12,09,10,7.90
2007,10,12,09,11,7.90
2007,10,12,09,12,7.90
2007,10,12,09,13,8.00
2007,10,12,09,15,8.00
2007,10,12,09,16,8.00
2007,10,12,09,17,8.00
2007,10,12,09,19,8.00
2007,10,12,09,20,8.00
2007,10,12,09,21,8.10
2007,10,12,09,22,8.10
2007,10,12,09,23,8.10
2007,10,12,09,24,8.10
2007,10,12,09,25,8.10
2007,10,12,09,26,8.10
2007,10,12,09,27,8.10
2007,10,12,09,28,8.10
2007,10,12,09,29,8.10
2007,10,12,09,30,8.10
2007,10,12,09,31,8.20
2007,10,12,09,32,8.20
2007,10,12,09,33,8.20
2007,10,12,09,34,8.20
2007,10,12,09,35,8.20
2007,10,12,09,36,8.20
2007,10,12,09,38,8.20
2007,10,12,09,39,8.20
2007,10,12,09,40,8.20
2007,10,12,09,41,8.20
2007,10,12,09,42,8.20
2007,10,12,09,43,8.20
2007,10,12,09,44,8.20
2007,10,12,09,45,8.20
2007,10,12,09,46,8.30
2007,10,12,09,47,8.30
2007,10,12,09,49,8.30
2007,10,12,09,50,8.30
2007,10,12,09,51,8.30
2007,10,12,09,52,8.40
2007,10,12,09,53,8.40
2007,10,12,09,54,8.40
2007,10,12,09,55,8.40
2007,10,12,09,56,8.50
2007,10,12,09,57,8.50
2007,10,12,09,58,8.50
2007,10,12,09,59,8.50
2007,10,12,10,00,8.60
2007,10,12,10,01,8.60
2007,10,12,10,02,8.60
2007,10,12,10,03,8.70
2007,10,12,10,04,8.70
2007,10,12,10,05,8.70
2007,10,12,10,07,8.80
2007,10,12,10,09,8.80
2007,10,12,10,10,8.90
2007,10,12,10,11,8.90
2007,10,12,10,12,9.00
2007,10,12,10,13,9.00
2007,10,12,10,14,9.00
2007,10,12,10,15,9.00
2007,10,12,10,16,9.00
2007,10,12,10,17,9.10
2007,10,12,10,18,9.10
2007,10,12,10,19,9.10
2007,10,12,10,20,9.20
2007,10,12,10,21,9.20
2007,10,12,10,22,9.20
2007,10,12,10,23,9.20
2007,10,12,10,24,9.30
2007,10,12,10,25,9.30
2007,10,12,10,26,9.30
2007,10,12,10,27,9.40
2007,10,12,10,28,9.40
2007,10,12,10,29,9.40
2007,10,12,10,30,9.40
2007,10,12,10,31,9.50
2007,10,12,10,33,9.50
2007,10,12,10,34,9.50
2007,10,12,10,35,9.60
2007,10,12,10,36,9.60
2007,10,12,10,37,9.60
2007,10,12,10,38,9.60
2007,10,12,10,39,9.70
2007,10,12,10,40,9.70
2007,10,12,10,41,9.70
2007,10,12,10,42,9.70
2007,10,12,10,43,9.80
2007,10,12,10,44,9.80
2007,10,12,10,45,9.90
2007,10,12,10,46,9.90
2007,10,12,10,47,9.90
2007,10,12,10,48,9.90
2007,10,12,10,49,9.90
2007,10,12,10,50,9.90
2007,10,12,10,51,9.90
2007,10,12,10,52,9.90
2007,10,12,10,54,9.80
2007,10,12,10,55,9.80
2007,10,12,10,56,9.80
2007,10,12,10,57,9.80
2007,10,12,10,59,9.80
2007,10,12,11,00,9.80
2007,10,12,11,01,9.80
2007,10,12,11,02,9.80
2007,10,12,11,03,9.80
2007,10,12,11,04,9.80
2007,10,12,11,05,9.80
2007,10,12,11,06,9.90
2007,10,12,11,08,9.90
2007,10,12,11,09,9.90
2007,10,12,11,10,9.90
2007,10,12,11,11,9.90
2007,10,12,11,12,9.90
2007,10,12,11,13,10.10
2007,10,12,11,14,10.10
2007,10,12,11,15,10.10
2007,10,12,11,17,10.10
2007,10,12,11,18,10.10
2007,10,12,11,19,10.10
2007,10,12,11,20,10.10
2007,10,12,11,21,10.10
2007,10,12,11,22,10.10
2007,10,12,11,23,10.10
2007,10,12,11,24,10.10
2007,10,12,11,25,10.10
2007,10,12,11,26,10.10
2007,10,12,11,27,10.10
2007,10,12,11,28,10.10
2007,10,12,11,29,10.10
2007,10,12,11,30,10.10
2007,10,12,11,31,10.10
2007,10,12,11,33,10.20
2007,10,12,11,34,10.20
2007,10,12,11,35,10.20
2007,10,12,11,37,10.30
2007,10,12,11,39,10.40
2007,10,12,11,40,10.60
2007,10,12,11,42,10.60
2007,10,12,11,43,10.60
2007,10,12,11,44,10.70
2007,10,12,11,45,10.70
2007,10,12,11,46,10.70
2007,10,12,11,47,10.80
2007,10,12,11,49,10.90
2007,10,12,11,50,10.90
2007,10,12,11,51,10.90
2007,10,12,11,52,10.90
2007,10,12,11,54,11.10
2007,10,12,11,55,11.10
2007,10,12,11,56,11.10
2007,10,12,11,57,11.20
2007,10,12,11,58,11.20
2007,10,12,12,00,11.30
2007,10,12,12,01,11.40
2007,10,12,12,02,11.40
2007,10,12,12,03,11.40
2007,10,12,12,04,11.40
2007,10,12,12,05,11.40
2007,10,12,12,06,11.40
2007,10,12,12,07,11.40
2007,10,12,12,09,11.40
2007,10,12,12,10,11.40
2007,10,12,12,11,11.40
2007,10,12,12,12,11.60
2007,10,12,12,13,11.60
2007,10,12,12,14,11.60
2007,10,12,12,15,11.60
2007,10,12,12,16,11.70
2007,10,12,12,18,11.70
2007,10,12,12,19,11.80
2007,10,12,12,20,11.80
2007,10,12,12,21,11.80
2007,10,12,12,22,11.80
2007,10,12,12,23,11.80
2007,10,12,12,24,11.90
2007,10,12,12,25,11.90
2007,10,12,12,26,12.00
2007,10,12,12,27,12.10
2007,10,12,12,28,12.10
2007,10,12,12,29,12.20
2007,10,12,12,30,12.20
2007,10,12,12,31,12.30
2007,10,12,12,32,12.30
2007,10,12,12,34,12.30
2007,10,12,12,35,12.30
2007,10,12,12,36,12.30
2007,10,12,12,37,12.40
2007,10,12,12,38,12.40
2007,10,12,12,39,12.50
2007,10,12,12,40,12.50
2007,10,12,12,41,12.50
2007,10,12,12,42,12.50
2007,10,12,12,43,12.60
2007,10,12,12,44,12.60
2007,10,12,12,45,12.60
2007,10,12,12,46,12.70
2007,10,12,12,47,12.70
2007,10,12,12,48,12.70
2007,10,12,12,50,12.80
2007,10,12,12,51,12.80
2007,10,12,12,52,12.80
2007,10,12,12,53,12.90
2007,10,12,12,55,13.00
2007,10,12,12,56,13.00
2007,10,12,12,58,13.10
2007,10,12,12,59,13.10
2007,10,12,13,00,13.20
2007,10,12,13,02,13.30
2007,10,12,13,03,13.30
2007,10,12,13,04,13.30
2007,10,12,13,05,13.30
2007,10,12,13,06,13.40
2007,10,12,13,07,13.50
2007,10,12,13,08,13.50
2007,10,12,13,09,13.60
2007,10,12,13,10,13.60
2007,10,12,13,11,13.70
2007,10,12,13,12,13.70
2007,10,12,13,13,13.70
2007,10,12,13,14,13.70
2007,10,12,13,15,13.80
2007,10,12,13,17,13.90
2007,10,12,13,19,14.00
2007,10,12,13,20,14.10
2007,10,12,13,21,14.10
2007,10,12,13,22,14.20
2007,10,12,13,23,14.10
2007,10,12,13,24,14.10
2007,10,12,13,26,14.20
2007,10,12,13,28,14.20
2007,10,12,13,29,14.20
2007,10,12,13,30,14.20
2007,10,12,13,32,14.30
2007,10,12,13,33,14.40
2007,10,12,13,34,14.40
2007,10,12,13,35,14.50
2007,10,12,13,36,14.50
2007,10,12,13,37,14.60
2007,10,12,13,39,14.70
2007,10,12,13,41,14.80
2007,10,12,13,42,14.80
2007,10,12,13,43,14.80
2007,10,12,13,44,14.80
2007,10,12,13,45,14.80
2007,10,12,13,46,14.80
2007,10,12,13,47,14.90
2007,10,12,13,49,15.00
2007,10,12,13,50,15.10
2007,10,12,13,51,15.10
2007,10,12,13,52,15.10
2007,10,12,13,53,15.10
2007,10,12,13,54,15.10
2007,10,12,13,55,15.10
2007,10,12,13,56,15.10
2007,10,12,13,57,15.20
2007,10,12,13,58,15.20
2007,10,12,13,59,15.20
2007,10,12,14,00,15.20
2007,10,12,14,01,15.30
2007,10,12,14,02,15.30
2007,10,12,14,03,15.30
2007,10,12,14,04,15.40
2007,10,12,14,05,15.40
2007,10,12,14,06,15.50
2007,10,12,14,07,15.60
2007,10,12,14,08,15.70
2007,10,12,14,09,15.80
2007,10,12,14,10,15.80
2007,10,12,14,11,15.80
2007,10,12,14,12,15.80
2007,10,12,14,13,15.90
2007,10,12,14,14,15.90
2007,10,12,14,15,16.10
2007,10,12,14,17,16.10
2007,10,12,14,18,16.10
2007,10,12,14,19,16.20
2007,10,12,14,20,16.20
2007,10,12,14,22,16.20
2007,10,12,14,23,16.30
2007,10,12,14,24,16.30
2007,10,12,14,25,16.30
2007,10,12,14,26,16.40
2007,10,12,14,27,16.40
2007,10,12,14,28,16.40
2007,10,12,14,29,16.40
2007,10,12,14,30,16.40
2007,10,12,14,32,16.40
2007,10,12,14,33,16.40
2007,10,12,14,34,16.60
2007,10,12,14,35,16.60
2007,10,12,14,36,16.70
2007,10,12,14,37,16.70
2007,10,12,14,38,16.70
2007,10,12,14,39,16.70
2007,10,12,14,40,16.70
2007,10,12,14,41,16.70
2007,10,12,14,42,16.70
2007,10,12,14,43,16.70
2007,10,12,14,44,16.70
2007,10,12,14,45,16.70
2007,10,12,14,46,16.70
2007,10,12,14,47,16.80
2007,10,12,14,48,16.80
2007,10,12,14,49,16.90
2007,10,12,14,50,16.90
2007,10,12,14,51,16.90
2007,10,12,14,52,17.00
2007,10,12,14,53,17.00
2007,10,12,14,54,17.00
2007,10,12,14,55,17.10
2007,10,12,14,56,17.20
2007,10,12,14,57,17.20
2007,10,12,14,58,17.30
2007,10,12,14,59,17.30
2007,10,12,15,00,17.30
2007,10,12,15,01,17.30
2007,10,12,15,02,17.30
2007,10,12,15,03,17.30
2007,10,12,15,04,17.30
2007,10,12,15,05,17.30
2007,10,12,15,06,17.30
2007,10,12,15,07,17.30
2007,10,12,15,08,17.40
2007,10,12,15,09,17.40
2007,10,12,15,10,17.40
2007,10,12,15,11,17.50
2007,10,12,15,12,17.50
2007,10,12,15,13,17.50
2007,10,12,15,14,17.60
2007,10,12,15,15,17.60
2007,10,12,15,16,17.60
2007,10,12,15,17,17.60
2007,10,12,15,18,17.70
2007,10,12,15,19,17.70
2007,10,12,15,20,17.80
2007,10,12,15,21,17.80
2007,10,12,15,22,17.80
2007,10,12,15,23,17.90
2007,10,12,15,24,17.90
2007,10,12,15,25,17.90
2007,10,12,15,26,17.90
2007,10,12,15,27,17.90
2007,10,12,15,28,17.90
2007,10,12,15,29,18.10
2007,10,12,15,30,18.10
2007,10,12,15,31,18.20
2007,10,12,15,32,18.20
2007,10,12,15,33,18.20
2007,10,12,15,34,18.20
2007,10,12,15,35,18.20
2007,10,12,15,36,18.20
2007,10,12,15,37,18.30
2007,10,12,15,38,18.30
2007,10,12,15,39,18.40
2007,10,12,15,40,18.40
2007,10,12,15,41,18.50
2007,10,12,15,42,18.60
2007,10,12,15,44,18.60
2007,10,12,15,45,18.70
2007,10,12,15,47,18.80
2007,10,12,15,48,18.80
2007,10,12,15,49,18.80
2007,10,12,15,50,18.70
2007,10,12,15,51,18.70
2007,10,12,15,52,18.70
2007,10,12,15,53,18.70
2007,10,12,15,54,18.70
2007,10,12,15,55,18.70
2007,10,12,15,56,18.70
2007,10,12,15,57,18.70
2007,10,12,15,58,18.70
2007,10,12,15,59,18.80
2007,10,12,16,00,18.80
2007,10,12,16,01,18.80
2007,10,12,16,02,18.80
2007,10,12,16,03,18.80
2007,10,12,16,04,18.90
2007,10,12,16,05,18.90
2007,10,12,16,06,18.90
2007,10,12,16,07,18.90
2007,10,12,16,08,18.90
2007,10,12,16,09,18.90
2007,10,12,16,10,18.90
2007,10,12,16,11,18.90
2007,10,12,16,12,19.10
2007,10,12,16,13,19.10
2007,10,12,16,14,19.10
2007,10,12,16,15,19.10
2007,10,12,16,16,19.10
2007,10,12,16,17,19.10
2007,10,12,16,18,19.10
2007,10,12,16,19,19.10
2007,10,12,16,20,19.10
2007,10,12,16,21,19.10
2007,10,12,16,22,19.10
2007,10,12,16,23,19.10
2007,10,12,16,24,19.10
2007,10,12,16,25,19.10
2007,10,12,16,26,19.10
2007,10,12,16,28,19.10
2007,10,12,16,29,19.10
2007,10,12,16,30,19.10
2007,10,12,16,31,19.10
2007,10,12,16,32,19.10
2007,10,12,16,33,19.10
2007,10,12,16,34,19.10
2007,10,12,16,35,19.10
2007,10,12,16,36,19.10
2007,10,12,16,37,18.90
2007,10,12,16,38,18.90
2007,10,12,16,39,18.80
2007,10,12,16,40,18.80
2007,10,12,16,41,18.70
2007,10,12,16,42,18.70
2007,10,12,16,43,18.60
2007,10,12,16,44,18.60
2007,10,12,16,45,18.50
2007,10,12,16,46,18.50
2007,10,12,16,47,18.50
2007,10,12,16,48,18.40
2007,10,12,16,49,18.40
2007,10,12,16,50,18.40
2007,10,12,16,51,18.40
2007,10,12,16,52,18.40
2007,10,12,16,53,18.40
2007,10,12,16,55,18.40
2007,10,12,16,57,18.40
2007,10,12,16,58,18.30
2007,10,12,16,59,18.30
2007,10,12,17,00,18.30
2007,10,12,17,01,18.30
2007,10,12,17,02,18.20
2007,10,12,17,03,18.20
2007,10,12,17,04,18.20
2007,10,12,17,05,18.20
2007,10,12,17,06,18.20
2007,10,12,17,07,18.10
2007,10,12,17,08,18.10
2007,10,12,17,09,18.10
2007,10,12,17,10,18.10
2007,10,12,17,11,17.90
2007,10,12,17,12,17.90
2007,10,12,17,13,17.90
2007,10,12,17,14,17.90
2007,10,12,17,15,17.90
2007,10,12,17,16,17.90
2007,10,12,17,17,17.80
2007,10,12,17,18,17.80
2007,10,12,17,19,17.70
2007,10,12,17,20,17.70
2007,10,12,17,21,17.60
2007,10,12,17,22,17.60
2007,10,12,17,23,17.50
2007,10,12,17,24,17.50
2007,10,12,17,25,17.40
2007,10,12,17,26,17.40
2007,10,12,17,27,17.30
2007,10,12,17,28,17.30
2007,10,12,17,29,17.30
2007,10,12,17,30,17.30
2007,10,12,17,31,17.20
2007,10,12,17,32,17.20
2007,10,12,17,33,17.10
2007,10,12,17,34,17.00
2007,10,12,17,35,17.00
2007,10,12,17,36,16.90
2007,10,12,17,38,16.80
2007,10,12,17,39,16.80
2007,10,12,17,40,16.70
2007,10,12,17,41,16.70
2007,10,12,17,42,16.70
2007,10,12,17,43,16.70
2007,10,12,17,44,16.70
2007,10,12,17,45,16.60
2007,10,12,17,46,16.60
2007,10,12,17,47,16.60
2007,10,12,17,48,16.40
2007,10,12,17,49,16.40
2007,10,12,17,50,16.40
2007,10,12,17,51,16.40
2007,10,12,17,52,16.40
2007,10,12,17,53,16.30
2007,10,12,17,54,16.30
2007,10,12,17,55,16.20
2007,10,12,17,56,16.20
2007,10,12,17,57,16.10
2007,10,12,17,58,16.10
2007,10,12,17,59,16.10
2007,10,12,18,00,15.90
2007,10,12,18,01,15.80
2007,10,12,18,02,15.80
2007,10,12,18,03,15.70
2007,10,12,18,04,15.70
2007,10,12,18,05,15.60
2007,10,12,18,06,15.50
2007,10,12,18,07,15.40
2007,10,12,18,08,15.40
2007,10,12,18,09,15.30
2007,10,12,18,10,15.30
2007,10,12,18,11,15.30
2007,10,12,18,12,15.20
2007,10,12,18,14,15.20
2007,10,12,18,15,15.10
2007,10,12,18,17,15.00
2007,10,12,18,18,14.90
2007,10,12,18,19,14.90
2007,10,12,18,20,14.80
2007,10,12,18,21,14.80
2007,10,12,18,22,14.80
2007,10,12,18,23,14.70
2007,10,12,18,24,14.60
2007,10,12,18,25,14.60
2007,10,12,18,27,14.40
2007,10,12,18,28,14.30
2007,10,12,18,29,14.20
2007,10,12,18,31,14.20
2007,10,12,18,32,14.20
2007,10,12,18,33,14.20
2007,10,12,18,34,14.10
2007,10,12,18,35,14.10
2007,10,12,18,36,14.00
2007,10,12,18,38,13.90
2007,10,12,18,39,13.90
2007,10,12,18,40,13.80
2007,10,12,18,41,13.70
2007,10,12,18,42,13.70
2007,10,12,18,43,13.70
2007,10,12,18,44,13.60
2007,10,12,18,45,13.50
2007,10,12,18,46,13.40
2007,10,12,18,47,13.40
2007,10,12,18,48,13.30
2007,10,12,18,50,13.20
2007,10,12,18,51,13.10
2007,10,12,18,52,13.00
2007,10,12,18,53,12.90
2007,10,12,18,54,12.80
2007,10,12,18,55,12.80
2007,10,12,18,56,12.80